SAS4098 ENGM-ENEV

Flight info

Callsign SAS4098
Flight time 1h 25m
Altitude 37000
Route RIBBE DCT GIGNI DCT SOMUB DCT TUXOT DCT VABOT DCT PENNO
Aircraft A320/M-SDE3FGHIRWY/LB1

Departure

Time 2026-04-30 19:10
Airport Oslo-Gardermoen International Airport (ENGM)

Arrival

Time 2026-04-30 20:35
Airport Harstad/Narvik Airport (ENEV)
Time Latitude Longitude Altitude Speed Heading
2026-04-30 18:45 60.19478 11.09346 678 ft 0 kts 17°
2026-04-30 19:00 60.19476 11.09345 685 ft 2 kts 18°
2026-04-30 19:00 60.19445 11.09320 678 ft 2 kts 30°
2026-04-30 19:01 60.19421 11.09274 677 ft 2 kts 57°
2026-04-30 19:01 60.19412 11.09244 679 ft 2 kts 61°
2026-04-30 19:02 60.19403 11.09180 679 ft 3 kts 95°
2026-04-30 19:02 60.19405 11.09156 678 ft 0 kts 107°
2026-04-30 19:04 60.19408 11.09210 678 ft 3 kts 63°
2026-04-30 19:04 60.19455 11.09094 680 ft 6 kts 286°
2026-04-30 19:05 60.19476 11.08950 685 ft 5 kts 286°
2026-04-30 19:05 60.19517 11.08659 678 ft 16 kts 286°
2026-04-30 19:06 60.19622 11.08584 678 ft 8 kts 16°
2026-04-30 19:06 60.19688 11.08621 679 ft 16 kts 16°
2026-04-30 19:06 60.19909 11.08749 679 ft 15 kts 16°
2026-04-30 19:07 60.20091 11.08854 678 ft 15 kts 16°
2026-04-30 19:07 60.20221 11.08929 681 ft 20 kts 16°
2026-04-30 19:08 60.20470 11.09072 681 ft 17 kts 15°
2026-04-30 19:08 60.20636 11.09105 682 ft 10 kts 308°
2026-04-30 19:08 60.20656 11.08983 681 ft 9 kts 287°
2026-04-30 19:09 60.20689 11.08765 675 ft 9 kts 286°
2026-04-30 19:09 60.20696 11.08650 679 ft 7 kts 244°
2026-04-30 19:09 60.20646 11.08612 679 ft 10 kts 195°
2026-04-30 19:10 60.19464 11.07935 678 ft 148 kts 195°
2026-04-30 19:10 60.17721 11.06854 1748 ft 162 kts 200°
2026-04-30 19:11 60.16649 11.05885 2199 ft 180 kts 223°
2026-04-30 19:11 60.15355 11.01028 3087 ft 222 kts 249°
2026-04-30 19:11 60.14717 10.98016 3620 ft 246 kts 248°
2026-04-30 19:12 60.14247 10.94695 4473 ft 252 kts 269°
2026-04-30 19:12 60.14515 10.91205 5421 ft 255 kts 283°
2026-04-30 19:12 60.14884 10.87708 6466 ft 257 kts 281°
2026-04-30 19:13 60.16498 10.81372 8339 ft 269 kts 318°
2026-04-30 19:13 60.20138 10.79141 10129 ft 290 kts 358°
2026-04-30 19:13 60.22167 10.79682 10927 ft 301 kts 11°
2026-04-30 19:14 60.24193 10.81323 11272 ft 330 kts 28°
2026-04-30 19:14 60.26005 10.84377 11747 ft 349 kts 45°
2026-04-30 19:14 60.27681 10.87981 12492 ft 355 kts 44°
2026-04-30 19:14 60.29423 10.91556 13295 ft 360 kts 43°
2026-04-30 19:15 60.31208 10.95142 14054 ft 365 kts 42°
2026-04-30 19:15 60.34860 11.02478 15391 ft 374 kts 42°
2026-04-30 19:15 60.36706 11.06217 16123 ft 377 kts 42°
2026-04-30 19:16 60.38561 11.09995 16865 ft 381 kts 42°
2026-04-30 19:16 60.40428 11.13824 17567 ft 384 kts 43°
2026-04-30 19:16 60.44348 11.21252 18914 ft 387 kts 31°
2026-04-30 19:17 60.46650 11.23881 19517 ft 385 kts 20°
2026-04-30 19:17 60.51727 11.27377 20708 ft 388 kts 14°
2026-04-30 19:17 60.54291 11.29177 21312 ft 391 kts 15°
2026-04-30 19:18 60.58577 11.32301 22285 ft 397 kts 15°
2026-04-30 19:18 60.62068 11.34860 23046 ft 401 kts 15°
2026-04-30 19:18 60.64702 11.36771 23603 ft 403 kts 14°
2026-04-30 19:19 60.67359 11.38682 24107 ft 406 kts 14°
2026-04-30 19:19 60.70031 11.40598 24569 ft 408 kts 14°
2026-04-30 19:19 60.75465 11.44005 25478 ft 407 kts
2026-04-30 19:20 60.78273 11.44591 25929 ft 405 kts 359°
2026-04-30 19:20 60.81093 11.44925 26378 ft 407 kts 359°
2026-04-30 19:20 60.86779 11.45608 27248 ft 412 kts 359°
2026-04-30 19:21 60.89648 11.45957 27649 ft 415 kts 359°
2026-04-30 19:21 60.95443 11.46675 28463 ft 419 kts 359°
2026-04-30 19:22 61.01296 11.47410 29292 ft 423 kts 359°
2026-04-30 19:22 61.10142 11.48400 30411 ft 429 kts 357°
2026-04-30 19:23 61.19136 11.48359 31309 ft 434 kts 355°
2026-04-30 19:24 61.25198 11.48235 31889 ft 438 kts 355°
2026-04-30 19:24 61.28242 11.48224 32298 ft 437 kts 356°
2026-04-30 19:24 61.34305 11.48262 33138 ft 435 kts 356°
2026-04-30 19:25 61.43349 11.48324 34363 ft 432 kts 356°
2026-04-30 19:26 61.49362 11.48357 35014 ft 432 kts 356°
2026-04-30 19:26 61.55371 11.48380 35620 ft 432 kts 356°
2026-04-30 19:26 61.58375 11.48390 35936 ft 431 kts 356°
2026-04-30 19:27 61.64373 11.48405 36535 ft 431 kts 356°
2026-04-30 19:27 61.70363 11.48432 37100 ft 430 kts 356°
2026-04-30 19:28 61.73358 11.48451 37260 ft 430 kts 356°
2026-04-30 19:29 61.85433 11.48485 37288 ft 444 kts 356°
2026-04-30 19:30 61.97809 11.48509 37871 ft 441 kts 356°
2026-04-30 19:30 62.03914 11.49411 38550 ft 440 kts
2026-04-30 19:31 62.10010 11.50814 38942 ft 442 kts
2026-04-30 19:31 62.13074 11.51516 39117 ft 443 kts
2026-04-30 19:31 62.19209 11.52918 39284 ft 446 kts
2026-04-30 19:32 62.25443 11.54338 39282 ft 455 kts
2026-04-30 19:32 62.31790 11.55790 39282 ft 460 kts
2026-04-30 19:33 62.38163 11.57277 39281 ft 461 kts
2026-04-30 19:33 62.44538 11.58765 39281 ft 461 kts
2026-04-30 19:34 62.50917 11.60243 39288 ft 461 kts
2026-04-30 19:35 62.60496 11.62495 39286 ft 462 kts
2026-04-30 19:35 62.66890 11.64013 39312 ft 462 kts
2026-04-30 19:36 62.73280 11.65523 39312 ft 462 kts
2026-04-30 19:36 62.82857 11.67812 39319 ft 461 kts
2026-04-30 19:37 62.89214 11.69331 39326 ft 459 kts
2026-04-30 19:37 62.95550 11.70844 39349 ft 458 kts
2026-04-30 19:38 63.01877 11.72377 39323 ft 457 kts
2026-04-30 19:38 63.08186 11.73921 39320 ft 456 kts
2026-04-30 19:39 63.14504 11.75475 39325 ft 456 kts
2026-04-30 19:39 63.20817 11.77014 39324 ft 457 kts
2026-04-30 19:40 63.27133 11.78568 39343 ft 457 kts
2026-04-30 19:40 63.33411 11.80164 39333 ft 459 kts
2026-04-30 19:41 63.39588 11.84220 39332 ft 466 kts 15°
2026-04-30 19:41 63.45689 11.89161 39328 ft 467 kts 15°
2026-04-30 19:42 63.51798 11.94124 39327 ft 467 kts 15°
2026-04-30 19:42 63.57910 11.99109 39350 ft 468 kts 15°
2026-04-30 19:43 63.64032 12.04120 39338 ft 468 kts 15°
2026-04-30 19:44 63.73219 12.11677 39325 ft 469 kts 15°
2026-04-30 19:44 63.79355 12.16742 39326 ft 469 kts 15°
2026-04-30 19:45 63.85490 12.21841 39348 ft 470 kts 15°
2026-04-30 19:45 63.91627 12.26973 39342 ft 470 kts 15°
2026-04-30 19:46 63.97767 12.32133 39326 ft 470 kts 15°
2026-04-30 19:46 64.03892 12.37079 39330 ft 470 kts 14°
2026-04-30 19:47 64.10087 12.41821 39332 ft 470 kts 13°
2026-04-30 19:47 64.16284 12.46576 39323 ft 470 kts 13°
2026-04-30 19:48 64.22471 12.51437 39321 ft 470 kts 14°
2026-04-30 19:48 64.28648 12.56353 39315 ft 470 kts 14°
2026-04-30 19:49 64.34827 12.61287 39332 ft 470 kts 14°
2026-04-30 19:49 64.44086 12.68699 39333 ft 470 kts 14°
2026-04-30 19:50 64.50268 12.73675 39318 ft 471 kts 14°
2026-04-30 19:50 64.56456 12.78686 39304 ft 471 kts 14°
2026-04-30 19:51 64.62651 12.83721 39300 ft 472 kts 14°
2026-04-30 19:51 64.68853 12.88788 39298 ft 472 kts 14°
2026-04-30 19:52 64.75009 12.93856 39322 ft 473 kts 14°
2026-04-30 19:52 64.81192 12.99163 39304 ft 474 kts 15°
2026-04-30 19:53 64.87368 13.04610 39300 ft 474 kts 15°
2026-04-30 19:53 64.93552 13.10089 39291 ft 475 kts 15°
2026-04-30 19:54 64.99741 13.15538 39288 ft 475 kts 15°
2026-04-30 19:54 65.05937 13.21001 39305 ft 476 kts 15°
2026-04-30 19:55 65.12134 13.26522 39293 ft 476 kts 15°
2026-04-30 19:55 65.18335 13.32095 39281 ft 477 kts 15°
2026-04-30 19:56 65.24500 13.37646 39288 ft 477 kts 15°
2026-04-30 19:56 65.30739 13.43272 39288 ft 476 kts 15°
2026-04-30 19:57 65.36882 13.48834 39275 ft 474 kts 15°
2026-04-30 19:57 65.43042 13.54467 39262 ft 474 kts 15°
2026-04-30 19:58 65.49203 13.60121 39257 ft 474 kts 15°
2026-04-30 19:58 65.55368 13.65788 39258 ft 475 kts 15°
2026-04-30 19:59 65.61536 13.71498 39259 ft 475 kts 15°
2026-04-30 20:00 65.69744 13.79158 39272 ft 475 kts 15°
2026-04-30 20:00 65.75911 13.84947 39262 ft 475 kts 15°
2026-04-30 20:01 65.85159 13.93676 39258 ft 475 kts 15°
2026-04-30 20:01 65.92326 14.00466 39251 ft 475 kts 15°
2026-04-30 20:02 66.00570 14.08361 39251 ft 475 kts 16°
2026-04-30 20:03 66.09811 14.17272 39249 ft 476 kts 16°
2026-04-30 20:03 66.15942 14.23196 39239 ft 476 kts 16°
2026-04-30 20:04 66.22109 14.29220 39244 ft 477 kts 16°
2026-04-30 20:05 66.31363 14.38303 39248 ft 477 kts 16°
2026-04-30 20:05 66.40628 14.47475 39237 ft 478 kts 16°
2026-04-30 20:06 66.46810 14.53637 39236 ft 479 kts 16°
2026-04-30 20:06 66.53000 14.59832 39235 ft 479 kts 16°
2026-04-30 20:07 66.59176 14.66051 39239 ft 478 kts 16°
2026-04-30 20:08 66.68436 14.75449 39208 ft 479 kts 16°
2026-04-30 20:08 66.74615 14.81762 39208 ft 479 kts 17°
2026-04-30 20:09 66.80756 14.88060 39205 ft 479 kts 17°
2026-04-30 20:09 66.90037 14.97617 39210 ft 480 kts 17°
2026-04-30 20:10 66.99303 15.07274 39198 ft 479 kts 17°
2026-04-30 20:11 67.08465 15.16931 39173 ft 468 kts 17°
2026-04-30 20:11 67.14477 15.23270 39166 ft 466 kts 17°
2026-04-30 20:12 67.20481 15.29627 38672 ft 467 kts 17°
2026-04-30 20:12 67.23483 15.32822 37891 ft 468 kts 16°
2026-04-30 20:12 67.26493 15.36037 37147 ft 468 kts 16°
2026-04-30 20:13 67.29515 15.39275 36301 ft 471 kts 16°
2026-04-30 20:13 67.32550 15.42535 35446 ft 474 kts 15°
2026-04-30 20:13 67.35606 15.45828 34524 ft 478 kts 15°
2026-04-30 20:13 67.38679 15.49154 33797 ft 477 kts 15°
2026-04-30 20:14 67.41720 15.52467 33170 ft 471 kts 15°
2026-04-30 20:14 67.44727 15.55758 32561 ft 466 kts 14°
2026-04-30 20:14 67.47704 15.59024 31891 ft 463 kts 14°
2026-04-30 20:14 67.50664 15.62275 31270 ft 458 kts 14°
2026-04-30 20:15 67.53590 15.65490 30661 ft 455 kts 14°
2026-04-30 20:15 67.56498 15.68688 30022 ft 452 kts 13°
2026-04-30 20:15 67.59380 15.71860 29393 ft 447 kts 13°
2026-04-30 20:15 67.62234 15.75002 28807 ft 442 kts 13°
2026-04-30 20:16 67.65019 15.78081 28227 ft 438 kts 13°
2026-04-30 20:16 67.67814 15.81192 27665 ft 434 kts 14°
2026-04-30 20:16 67.70574 15.84277 27103 ft 429 kts 14°
2026-04-30 20:16 67.73297 15.87331 26561 ft 422 kts 13°
2026-04-30 20:17 67.75978 15.90348 26114 ft 415 kts 13°
2026-04-30 20:17 67.78621 15.93319 25560 ft 412 kts 13°
2026-04-30 20:17 67.81246 15.96261 25063 ft 407 kts 13°
2026-04-30 20:17 67.83845 15.99178 24563 ft 404 kts 13°
2026-04-30 20:18 67.86425 16.02088 24066 ft 401 kts 13°
2026-04-30 20:18 67.88983 16.04982 23535 ft 399 kts 14°
2026-04-30 20:18 67.91532 16.07872 23008 ft 395 kts 14°
2026-04-30 20:18 67.94072 16.10352 22533 ft 382 kts
2026-04-30 20:19 67.96627 16.11758 22062 ft 372 kts
2026-04-30 20:19 67.99158 16.13002 21596 ft 368 kts
2026-04-30 20:19 68.01668 16.14260 21127 ft 366 kts
2026-04-30 20:19 68.04160 16.15515 20667 ft 363 kts
2026-04-30 20:20 68.06635 16.16763 20202 ft 361 kts
2026-04-30 20:20 68.09101 16.17998 19738 ft 361 kts
2026-04-30 20:20 68.11565 16.19230 19267 ft 359 kts
2026-04-30 20:20 68.14018 16.20463 18800 ft 358 kts
2026-04-30 20:21 68.16465 16.21697 18335 ft 357 kts
2026-04-30 20:21 68.18900 16.22927 17844 ft 355 kts
2026-04-30 20:21 68.21321 16.24157 17389 ft 352 kts
2026-04-30 20:21 68.23720 16.25381 16948 ft 350 kts
2026-04-30 20:22 68.26103 16.26595 16510 ft 348 kts
2026-04-30 20:22 68.28476 16.27805 16076 ft 346 kts
2026-04-30 20:22 68.30836 16.29018 15647 ft 344 kts
2026-04-30 20:22 68.33188 16.30230 15213 ft 343 kts
2026-04-30 20:23 68.35532 16.31441 14770 ft 342 kts
2026-04-30 20:23 68.37873 16.32644 14344 ft 343 kts
2026-04-30 20:23 68.40213 16.33703 13930 ft 337 kts 357°
2026-04-30 20:23 68.42533 16.33798 13419 ft 332 kts 351°
2026-04-30 20:24 68.44834 16.33721 12961 ft 330 kts 351°
2026-04-30 20:24 68.47091 16.33654 12510 ft 327 kts 351°
2026-04-30 20:24 68.49387 16.33590 12060 ft 324 kts 351°
2026-04-30 20:24 68.51640 16.33525 11611 ft 323 kts 351°
2026-04-30 20:25 68.56082 16.33391 10708 ft 320 kts 351°
2026-04-30 20:25 68.58304 16.33323 10283 ft 319 kts 352°
2026-04-30 20:26 68.62584 16.33230 9983 ft 297 kts 351°
2026-04-30 20:26 68.66713 16.33126 9096 ft 294 kts 351°
2026-04-30 20:26 68.68744 16.33072 8460 ft 289 kts 351°
2026-04-30 20:27 68.72576 16.33025 7718 ft 266 kts 351°
2026-04-30 20:27 68.76251 16.33656 6608 ft 270 kts 14°
2026-04-30 20:28 68.78849 16.40664 5948 ft 265 kts 72°
2026-04-30 20:28 68.78569 16.50408 5827 ft 254 kts 128°
2026-04-30 20:29 68.76470 16.58046 5700 ft 249 kts 136°
2026-04-30 20:30 68.72457 16.65113 5210 ft 221 kts 185°
2026-04-30 20:30 68.68195 16.65618 4368 ft 190 kts 187°
2026-04-30 20:31 68.64291 16.66063 3675 ft 184 kts 186°
2026-04-30 20:32 68.60640 16.66489 2786 ft 169 kts 186°
2026-04-30 20:32 68.58378 16.66754 2198 ft 152 kts 185°
2026-04-30 20:33 68.57371 16.66874 1953 ft 139 kts 186°
2026-04-30 20:33 68.55509 16.67084 1424 ft 130 kts 187°
2026-04-30 20:33 68.54607 16.67174 1194 ft 132 kts 185°
2026-04-30 20:34 68.52753 16.67385 688 ft 133 kts 181°
2026-04-30 20:34 68.50923 16.67641 265 ft 131 kts 181°
2026-04-30 20:35 68.50009 16.67737 98 ft 129 kts 181°
2026-04-30 20:35 68.49218 16.67820 96 ft 92 kts 177°
2026-04-30 20:35 68.48521 16.67898 95 ft 27 kts 178°
2026-04-30 20:36 68.48441 16.68043 95 ft 15 kts 93°
2026-04-30 20:36 68.48443 16.68175 98 ft 2 kts 87°
2026-04-30 20:36 68.48484 16.68269 100 ft 11 kts
2026-04-30 20:37 68.48565 16.68262 97 ft 13 kts 358°
2026-04-30 20:37 68.48668 16.68247 90 ft 17 kts 358°
2026-04-30 20:37 68.48784 16.68234 90 ft 16 kts 356°
2026-04-30 20:37 68.48864 16.68224 88 ft 6 kts
2026-04-30 20:38 68.48884 16.68265 89 ft 2 kts 54°
2026-04-30 20:38 68.48891 16.68358 93 ft 6 kts 88°
2026-04-30 20:38 68.48891 16.68467 92 ft 4 kts 89°
2026-04-30 20:39 68.48956 16.68541 92 ft 4 kts 356°
2026-04-30 20:39 68.48969 16.68539 93 ft 0 kts 357°